Regional Weather Roundup
Issued by NWS

Home | Current Version | Previous Version | Graphics & Text | Print | Product List | Glossary Off
Versions: 1 2 3 4 5 6 7 8 9 10 11 12 13 14 15 16 17 18 19 20 21 22 23 24 25 26 27 28 29 30 31 32 33 34 35 36 37 38 39 40 41 42 43 44 45 46 47 48 49 50

000
ASUS43 KTOP 241708
RWRKS

WEATHER ROUNDUP FOR KANSAS
NATIONAL WEATHER SERVICE GOODLAND KS
1100 AM CST FRI NOV 24 2017

NOTE:  "FAIR" INDICATES FEW OR NO CLOUDS BELOW 12,000 FEET WITH NO
SIGNIFICANT WEATHER AND/OR OBSTRUCTIONS TO VISIBILITY.

KSZ001>006-013>018-027>032-041>047-241800-
NORTHWEST KANSAS

CITY           SKY/WX    TMP DP  RH WIND       PRES   REMARKS
GOODLAND       CLOUDY    67  31  26 NW6       29.78R
HAYS           SUNNY     66  41  40 SW6       29.70S
HILL CITY      SUNNY     76  36  23 NW15G24   29.70R
RUSSELL        SUNNY     69  42  37 SW8       29.67F
$$

KSZ061>065-074>080-084>089-241800-
SOUTHWEST KANSAS

CITY           SKY/WX    TMP DP  RH WIND       PRES   REMARKS
DODGE CITY     SUNNY     68  36  30 N9        29.74S
ELKHART        SUNNY     77  33  20 W10       29.78S
GARDEN CITY    MOSUNNY   61  36  39 N7        29.74S
GREAT BEND     SUNNY     69  40  34 S6        29.71F
LIBERAL        SUNNY     67  32  27 NW9       29.76F
PRATT          SUNNY     65  38  36 NW3       29.74S
$$

KSZ066>073-081>083-090>101-241800-
SOUTHEAST KANSAS

CITY           SKY/WX    TMP DP  RH WIND       PRES   REMARKS
CHANUTE        SUNNY     63  36  36 S17       29.76F
COFFEYVILLE    SUNNY     63  36  36 S17       29.78F
HUTCHINSON     CLOUDY    62  39  42 SW9       29.73R
MEDICINE LODGE   N/A     62  38  40 VRB5      29.74S
PARSONS        SUNNY     63  36  36 S12       29.78F
WICHITA INTL   CLOUDY    62  40  44 S12       29.73F
WICHITA JABRA  CLOUDY    63  38  39 S13       29.73F
WICHITA MCCONL CLOUDY    63  36  37 SW12      29.73F
WINFIELD       CLOUDY    67  39  35 SW15      29.76F
$$

KSZ007>012-019>026-033>040-048>060-102>105-241800-
NORTHEAST KANSAS

CITY           SKY/WX    TMP DP  RH WIND       PRES   REMARKS
CONCORDIA      SUNNY     67  40  37 W9        29.63F
EMPORIA        CLOUDY    67  38  34 SW12      29.70F
LAWRENCE       SUNNY     65  38  36 S13       29.66F
MANHATTAN      MOSUNNY   65  39  38 SW20      29.64F
MARYSVILLE     SUNNY     63  41  45 SW13G18   29.60F
OLATHE IND     SUNNY     65  37  35 S23G33    29.68F
OLATHE EXE     SUNNY     64  37  36 S16G25    29.67F
SALINA         SUNNY     67  42  40 SW13      29.68F
TOPEKA BILLARD SUNNY     64  38  38 SW15G23   29.65F
TOPEKA FORBES  SUNNY     65  38  36 SW20G26   29.65F
$$




USA.gov is the U.S. government's official web portal to all federal, state and local government web resources and services.